UAE314 OMDB-WSSS

Flight info

Callsign UAE314
Flight time N/A
Altitude 33000
Route IVURO M677 LALDO B505 NADSO A777 VAXIM P307 PARAR N571 BEKUT/N0492F350 N571 VAMPI/N0487F370 N571 GUNIP M630 NIREN Y511 TOPOR A464 ARAMA DCT TEBUN TEBUN1B
Aircraft B77W/H-SDE1E2E3FGHIJ2J3J4J5M1RWXY/LB1D1

Departure

Time 2026-05-08 09:00
Airport Dubai International Airport (OMDB)

Arrival

Time N/A
Airport Singapore Changi Airport (WSSS)
Time Latitude Longitude Altitude Speed Heading
2026-05-08 08:30 25.24856 55.35959 27 ft 0 kts 32°
2026-05-08 08:35 25.24855 55.35959 27 ft 0 kts 32°
2026-05-08 08:36 25.24855 55.35958 27 ft 0 kts 32°
2026-05-08 08:42 25.24846 55.35952 26 ft 3 kts 32°
2026-05-08 08:43 25.24829 55.35940 26 ft 3 kts 32°
2026-05-08 08:43 25.24813 55.35929 24 ft 1 kts 32°
2026-05-08 08:43 25.24799 55.35920 26 ft 3 kts 19°
2026-05-08 08:43 25.24784 55.35916 24 ft 3 kts 352°
2026-05-08 08:44 25.24773 55.35919 25 ft 3 kts 319°
2026-05-08 08:44 25.24762 55.35933 26 ft 3 kts 299°
2026-05-08 08:44 25.24752 55.35953 24 ft 2 kts 300°
2026-05-08 08:44 25.24749 55.35959 27 ft 4 kts 302°
2026-05-08 08:49 25.24750 55.35957 24 ft 1 kts 302°
2026-05-08 08:49 25.24759 55.35941 25 ft 5 kts 302°
2026-05-08 08:49 25.24785 55.35895 24 ft 9 kts 302°
2026-05-08 08:49 25.24826 55.35821 27 ft 13 kts 302°
2026-05-08 08:50 25.24883 55.35722 27 ft 17 kts 303°
2026-05-08 08:50 25.24951 55.35615 27 ft 17 kts 304°
2026-05-08 08:50 25.25015 55.35505 27 ft 17 kts 302°
2026-05-08 08:50 25.25083 55.35383 27 ft 21 kts 302°
2026-05-08 08:51 25.25170 55.35243 27 ft 23 kts 303°
2026-05-08 08:51 25.25257 55.35091 27 ft 23 kts 300°
2026-05-08 08:51 25.25327 55.34964 27 ft 16 kts 305°
2026-05-08 08:51 25.25415 55.34893 27 ft 16 kts 355°
2026-05-08 08:52 25.25517 55.34937 27 ft 16 kts 31°
2026-05-08 08:52 25.25612 55.35002 27 ft 16 kts 32°
2026-05-08 08:52 25.25660 55.35089 27 ft 15 kts 112°
2026-05-08 08:52 25.25682 55.35161 27 ft 10 kts 29°
2026-05-08 08:53 25.25746 55.35202 27 ft 12 kts 32°
2026-05-08 08:53 25.25828 55.35259 27 ft 17 kts 32°
2026-05-08 08:53 25.25950 55.35349 27 ft 24 kts 44°
2026-05-08 08:53 25.25984 55.35527 27 ft 25 kts 108°
2026-05-08 08:54 25.25899 55.35694 27 ft 25 kts 121°
2026-05-08 08:54 25.25807 55.35856 27 ft 25 kts 122°
2026-05-08 08:54 25.25717 55.36018 27 ft 25 kts 121°
2026-05-08 08:54 25.25625 55.36182 27 ft 25 kts 121°
2026-05-08 08:55 25.25535 55.36347 27 ft 25 kts 121°
2026-05-08 08:55 25.25447 55.36510 27 ft 25 kts 122°
2026-05-08 08:55 25.25354 55.36672 27 ft 25 kts 121°
2026-05-08 08:55 25.25264 55.36836 27 ft 25 kts 121°
2026-05-08 08:56 25.25174 55.37000 27 ft 25 kts 121°
2026-05-08 08:56 25.25084 55.37164 27 ft 25 kts 121°
2026-05-08 08:56 25.24994 55.37329 27 ft 25 kts 121°
2026-05-08 08:56 25.24902 55.37492 27 ft 25 kts 122°
2026-05-08 08:57 25.24812 55.37656 27 ft 25 kts 121°
2026-05-08 08:57 25.24731 55.37807 27 ft 20 kts 117°
2026-05-08 08:57 25.24760 55.37897 27 ft 9 kts 32°
2026-05-08 08:57 25.24814 55.37935 27 ft 9 kts 29°
2026-05-08 08:58 25.24866 55.37920 27 ft 8 kts 311°
2026-05-08 08:58 25.24876 55.37903 27 ft 0 kts 302°
2026-05-08 08:58 25.24930 55.37809 27 ft 38 kts 301°
2026-05-08 08:59 25.25183 55.37346 27 ft 101 kts 301°
2026-05-08 08:59 25.25647 55.36510 27 ft 152 kts 301°
2026-05-08 08:59 25.26268 55.35387 106 ft 182 kts 301°
2026-05-08 08:59 25.26951 55.34204 584 ft 185 kts 303°
2026-05-08 09:00 25.27678 55.32997 1022 ft 189 kts 302°
2026-05-08 09:00 25.28420 55.31812 1655 ft 187 kts 303°
2026-05-08 09:00 25.29182 55.30618 2122 ft 196 kts 298°
2026-05-08 09:00 25.30105 55.29427 2318 ft 218 kts 331°
2026-05-08 09:01 25.31618 55.29172 2838 ft 228 kts
2026-05-08 09:01 25.33211 55.29354 3138 ft 238 kts 360°
2026-05-08 09:01 25.34890 55.29439 3716 ft 243 kts 359°
2026-05-08 09:01 25.36584 55.29538 4352 ft 246 kts 360°
2026-05-08 09:02 25.38363 55.29639 4562 ft 263 kts
2026-05-08 09:02 25.40114 55.30341 4856 ft 278 kts 34°
2026-05-08 09:02 25.41427 55.31940 5343 ft 286 kts 58°
2026-05-08 09:02 25.42074 55.34013 5916 ft 289 kts 84°
2026-05-08 09:03 25.42152 55.36254 6392 ft 294 kts 88°
2026-05-08 09:03 25.42172 55.38525 7016 ft 294 kts 89°
2026-05-08 09:03 25.42182 55.40013 7473 ft 292 kts 89°
2026-05-08 09:03 25.42199 55.42266 8053 ft 295 kts 89°
2026-05-08 09:04 25.42224 55.44545 8681 ft 296 kts 90°
2026-05-08 09:04 25.42254 55.46831 9319 ft 297 kts 90°
2026-05-08 09:04 25.42291 55.49122 9963 ft 298 kts 90°
2026-05-08 09:04 25.42327 55.51429 10446 ft 306 kts 91°
2026-05-08 09:05 25.42366 55.53866 10591 ft 326 kts 91°
2026-05-08 09:05 25.42410 55.56443 10745 ft 346 kts 90°
2026-05-08 09:05 25.42457 55.59176 10906 ft 365 kts 90°
2026-05-08 09:05 25.42510 55.62044 11244 ft 377 kts 90°
2026-05-08 09:06 25.42561 55.64975 11800 ft 384 kts 91°
2026-05-08 09:06 25.42569 55.67945 12479 ft 388 kts 95°
2026-05-08 09:06 25.42303 55.70921 13230 ft 389 kts 101°
2026-05-08 09:06 25.41728 55.73847 13962 ft 389 kts 106°
2026-05-08 09:07 25.41083 55.76743 14563 ft 394 kts 105°
2026-05-08 09:07 25.40432 55.79706 15128 ft 399 kts 105°
2026-05-08 09:07 25.39798 55.82652 15697 ft 404 kts 105°
2026-05-08 09:07 25.39135 55.85763 16356 ft 407 kts 104°
2026-05-08 09:08 25.38483 55.88825 16976 ft 411 kts 104°
2026-05-08 09:08 25.37820 55.91924 17513 ft 417 kts 104°
2026-05-08 09:08 25.37151 55.95051 18124 ft 420 kts 104°
2026-05-08 09:08 25.36484 55.98174 18607 ft 424 kts 104°
2026-05-08 09:09 25.35799 56.01382 19078 ft 429 kts 104°
2026-05-08 09:09 25.35108 56.04614 19568 ft 433 kts 104°
2026-05-08 09:09 25.34412 56.07875 20044 ft 437 kts 105°
2026-05-08 09:09 25.33931 56.10121 20357 ft 441 kts 105°
2026-05-08 09:10 25.33220 56.13434 20797 ft 445 kts 105°
2026-05-08 09:10 25.32625 56.16814 21250 ft 451 kts 99°
2026-05-08 09:10 25.32317 56.20270 21688 ft 455 kts 96°
2026-05-08 09:10 25.32063 56.23732 22156 ft 459 kts 96°
2026-05-08 09:11 25.31800 56.27264 22613 ft 463 kts 96°
2026-05-08 09:11 25.31520 56.30817 23023 ft 467 kts 97°
2026-05-08 09:11 25.31222 56.34413 23467 ft 470 kts 97°
2026-05-08 09:11 25.30917 56.38018 23833 ft 473 kts 97°
2026-05-08 09:12 25.30692 56.41648 24190 ft 476 kts 94°
2026-05-08 09:12 25.30590 56.45332 24547 ft 480 kts 93°
2026-05-08 09:12 25.30511 56.49033 24892 ft 483 kts 93°
2026-05-08 09:12 25.30418 56.52750 25238 ft 486 kts 93°
2026-05-08 09:13 25.30219 56.56486 25570 ft 487 kts 98°
2026-05-08 09:13 25.29737 56.59713 25848 ft 489 kts 104°
2026-05-08 09:13 25.29138 56.62398 26097 ft 490 kts 107°
2026-05-08 09:13 25.28385 56.65020 26329 ft 491 kts 112°
2026-05-08 09:14 25.27393 56.67751 26570 ft 492 kts 114°
2026-05-08 09:14 25.26402 56.70345 26782 ft 495 kts 115°
2026-05-08 09:14 25.25400 56.72925 27006 ft 497 kts 115°
2026-05-08 09:14 25.24364 56.75577 27269 ft 498 kts 115°
2026-05-08 09:15 25.23353 56.78174 27522 ft 500 kts 115°
2026-05-08 09:15 25.22320 56.80839 27731 ft 502 kts 115°
2026-05-08 09:15 25.21122 56.83950 27931 ft 506 kts 115°
2026-05-08 09:15 25.19729 56.87593 28217 ft 508 kts 114°
2026-05-08 09:16 25.18377 56.91144 28513 ft 510 kts 114°
2026-05-08 09:16 25.16999 56.94769 28799 ft 512 kts 114°
2026-05-08 09:16 25.15615 56.98409 29048 ft 514 kts 114°
2026-05-08 09:16 25.14226 57.02060 29333 ft 516 kts 114°
2026-05-08 09:17 25.12836 57.05706 29687 ft 516 kts 114°
2026-05-08 09:17 25.11633 57.08860 29987 ft 515 kts 114°
2026-05-08 09:17 25.10186 57.12649 30389 ft 513 kts 114°
2026-05-08 09:17 25.08803 57.16266 30745 ft 511 kts 115°
2026-05-08 09:18 25.07659 57.19254 31033 ft 511 kts 115°
2026-05-08 09:18 25.06374 57.22608 31344 ft 510 kts 115°
2026-05-08 09:18 25.05211 57.25641 31643 ft 509 kts 115°
2026-05-08 09:18 25.04220 57.28224 31864 ft 508 kts 115°
2026-05-08 09:19 25.03116 57.31101 32146 ft 507 kts 115°
2026-05-08 09:19 25.01884 57.34309 32476 ft 505 kts 115°
2026-05-08 09:19 25.00526 57.37839 32741 ft 506 kts 115°
2026-05-08 09:19 24.99143 57.41433 32765 ft 509 kts 115°
2026-05-08 09:20 24.96358 57.48657 32791 ft 515 kts 115°
2026-05-08 09:20 24.93932 57.54944 32792 ft 519 kts 115°
2026-05-08 09:21 24.91556 57.61094 32779 ft 520 kts 115°
2026-05-08 09:23 24.83365 57.82230 32772 ft 518 kts 115°
2026-05-08 09:23 24.80550 57.88992 32761 ft 517 kts 118°
2026-05-08 09:24 24.77409 57.96017 32778 ft 518 kts 118°
2026-05-08 09:24 24.74310 58.02965 32770 ft 518 kts 118°
2026-05-08 09:25 24.71464 58.09426 32771 ft 518 kts 117°
2026-05-08 09:25 24.68330 58.16574 32768 ft 518 kts 117°
2026-05-08 09:26 24.65275 58.23531 32768 ft 518 kts 117°
2026-05-08 09:26 24.62830 58.29087 32768 ft 518 kts 117°
2026-05-08 09:27 24.60376 58.34652 32764 ft 518 kts 117°
2026-05-08 09:27 24.57962 58.40121 32765 ft 518 kts 117°
2026-05-08 09:28 24.55337 58.46060 32761 ft 518 kts 117°
2026-05-08 09:28 24.52363 58.52779 32761 ft 518 kts 117°
2026-05-08 09:29 24.49615 58.58980 32760 ft 518 kts 117°
2026-05-08 09:29 24.46576 58.65827 32763 ft 518 kts 117°
2026-05-08 09:30 24.43415 58.72942 32756 ft 518 kts 117°
2026-05-08 09:30 24.40588 58.79297 32757 ft 518 kts 117°
2026-05-08 09:31 24.37392 58.86495 32758 ft 518 kts 117°
2026-05-08 09:31 24.34255 58.93557 32753 ft 518 kts 117°
2026-05-08 09:32 24.31098 59.00650 32752 ft 517 kts 117°
2026-05-08 09:32 24.27934 59.07749 32752 ft 517 kts 117°
2026-05-08 09:33 24.24772 59.14830 32754 ft 518 kts 117°
2026-05-08 09:33 24.21606 59.21908 32750 ft 518 kts 117°
2026-05-08 09:34 24.18464 59.28925 32748 ft 516 kts 117°
2026-05-08 09:34 24.15313 59.35950 32748 ft 516 kts 117°
2026-05-08 09:35 24.12138 59.43020 32751 ft 517 kts 117°
2026-05-08 09:35 24.09007 59.49981 32755 ft 519 kts 117°
2026-05-08 09:36 24.06064 59.56501 32744 ft 520 kts 118°
2026-05-08 09:36 24.03098 59.63054 32738 ft 518 kts 118°
2026-05-08 09:37 24.00368 59.69080 32741 ft 516 kts 118°
2026-05-08 09:37 23.97559 59.75277 32747 ft 516 kts 118°
2026-05-08 09:38 23.94743 59.81479 32754 ft 517 kts 117°
2026-05-08 09:38 23.91742 59.88084 32744 ft 518 kts 117°
2026-05-08 09:39 23.88523 59.95155 32742 ft 517 kts 118°
2026-05-08 09:39 23.85325 60.02170 32741 ft 515 kts 118°
2026-05-08 09:40 23.82127 60.09176 32751 ft 516 kts 118°
2026-05-08 09:40 23.79034 60.15939 32754 ft 517 kts 117°
2026-05-08 09:41 23.75878 60.22832 32753 ft 518 kts 117°
2026-05-08 09:41 23.72870 60.29393 32745 ft 518 kts 117°
2026-05-08 09:42 23.70652 60.34225 32741 ft 515 kts 117°
2026-05-08 09:42 23.67991 60.40015 32756 ft 514 kts 117°
2026-05-08 09:43 23.65280 60.45907 32756 ft 514 kts 117°
2026-05-08 09:43 23.62673 60.51566 32751 ft 515 kts 117°
2026-05-08 09:44 23.59975 60.57415 32755 ft 514 kts 117°
2026-05-08 09:44 23.56883 60.64109 32755 ft 514 kts 117°
2026-05-08 09:45 23.54663 60.68911 32759 ft 514 kts 117°
2026-05-08 09:45 23.52086 60.74477 32757 ft 514 kts 117°
2026-05-08 09:46 23.49372 60.80334 32761 ft 515 kts 117°
2026-05-08 09:46 23.46725 60.86038 32761 ft 515 kts 117°
2026-05-08 09:47 23.44094 60.91701 32757 ft 515 kts 117°
2026-05-08 09:47 23.41462 60.97362 32755 ft 514 kts 117°
2026-05-08 09:48 23.38852 61.02968 32759 ft 514 kts 117°
2026-05-08 09:48 23.36189 61.08680 32757 ft 514 kts 117°
2026-05-08 09:49 23.33506 61.14431 32764 ft 515 kts 117°
2026-05-08 09:49 23.30264 61.21429 32759 ft 515 kts 116°
2026-05-08 09:50 23.27143 61.28457 32759 ft 514 kts 116°
2026-05-08 09:50 23.24047 61.35478 32761 ft 514 kts 116°
2026-05-08 09:51 23.20957 61.42426 32760 ft 512 kts 116°
2026-05-08 09:51 23.17841 61.49400 32760 ft 514 kts 116°
2026-05-08 09:52 23.15037 61.55669 33036 ft 514 kts 116°
2026-05-08 09:52 23.13716 61.58618 33283 ft 513 kts 116°
2026-05-08 09:52 23.12419 61.61516 33476 ft 513 kts 116°
2026-05-08 09:52 23.11146 61.64355 33638 ft 513 kts 116°
2026-05-08 09:53 23.09842 61.67264 33746 ft 514 kts 116°
2026-05-08 09:53 23.08542 61.70162 33991 ft 512 kts 116°
2026-05-08 09:53 23.07113 61.73345 34159 ft 512 kts 116°
2026-05-08 09:54 23.04162 61.79915 34550 ft 510 kts 117°
2026-05-08 09:54 23.02632 61.83320 34779 ft 508 kts 117°
2026-05-08 09:54 23.01090 61.86750 34750 ft 507 kts 117°
2026-05-08 09:55 22.98062 61.93483 34753 ft 503 kts 117°
2026-05-08 09:55 22.95009 62.00258 34772 ft 505 kts 117°
2026-05-08 09:56 22.91908 62.07130 34772 ft 508 kts 117°
2026-05-08 09:56 22.88830 62.13946 34770 ft 511 kts 117°
2026-05-08 09:57 22.84329 62.23890 34761 ft 509 kts 117°
2026-05-08 09:57 22.81623 62.29862 34775 ft 509 kts 117°
2026-05-08 09:58 22.78567 62.36596 34770 ft 511 kts 117°
2026-05-08 09:58 22.75419 62.43521 34764 ft 509 kts 117°
2026-05-08 09:59 22.72513 62.49904 34772 ft 509 kts 117°
2026-05-08 09:59 22.69771 62.55921 34768 ft 511 kts 117°